Configuration
enable temperature 45.00
disable temperature 47.00
timezone = America/New_York
weather station = RAH/102,68
minumum run time = 6
next run at 2026-05-04T05:00:00, duration = 7 hours
| date and time | temperature | relative humidity | wetbulb | |
| 2026-05-04T00:00:00 | 58.000 | 55.000 | 49.434 | no 0 hours |
| 2026-05-04T01:00:00 | 52.000 | 71.000 | 47.312 | no 0 hours |
| 2026-05-04T02:00:00 | 50.000 | 80.000 | 47.002 | no 0 hours |
| 2026-05-04T03:00:00 | 47.000 | 86.000 | 45.062 | no 0 hours |
| 2026-05-04T04:00:00 | 46.000 | 93.000 | 45.109 | no 0 hours |
| 2026-05-04T05:00:00 | 45.000 | 79.000 | 42.110 | yes 7 hours |
| 2026-05-04T06:00:00 | -------------------- | 76.000 | -------------------- | -------------------- |
| 2026-05-04T07:00:00 | -------------------- | 79.000 | -------------------- | -------------------- |
| 2026-05-04T08:00:00 | 44.000 | 82.000 | 41.575 | yes 4 hours |
| 2026-05-04T09:00:00 | -------------------- | 86.000 | -------------------- | -------------------- |
| 2026-05-04T10:00:00 | -------------------- | 89.000 | -------------------- | -------------------- |
| 2026-05-04T11:00:00 | 46.000 | -------------------- | -------------------- | -------------------- |
| 2026-05-04T12:00:00 | 52.000 | 83.000 | 49.432 | no 0 hours |
| 2026-05-04T13:00:00 | 58.000 | 72.000 | 52.948 | no 0 hours |
| 2026-05-04T14:00:00 | 63.000 | 62.000 | 55.181 | no 0 hours |
| 2026-05-04T15:00:00 | 69.000 | 51.000 | 57.463 | no 0 hours |
| 2026-05-04T16:00:00 | 72.000 | 42.000 | 57.387 | no 0 hours |
| 2026-05-04T17:00:00 | 74.000 | 37.000 | 57.474 | no 0 hours |
| 2026-05-04T18:00:00 | 77.000 | 33.000 | 58.472 | no 0 hours |
| 2026-05-04T19:00:00 | 78.000 | 32.000 | 58.880 | no 0 hours |
| 2026-05-04T20:00:00 | 79.000 | 30.000 | 58.967 | no 0 hours |
| 2026-05-04T21:00:00 | -------------------- | -------------------- | -------------------- | -------------------- |
| 2026-05-04T22:00:00 | 78.000 | 31.000 | 58.574 | no 0 hours |
| 2026-05-04T23:00:00 | 76.000 | 36.000 | 58.647 | no 0 hours |
| 2026-05-05T00:00:00 | 72.000 | 44.000 | 57.941 | no 0 hours |
| 2026-05-05T01:00:00 | 67.000 | 54.000 | 56.608 | no 0 hours |
| 2026-05-05T02:00:00 | 65.000 | 60.000 | 56.418 | no 0 hours |
| 2026-05-05T03:00:00 | 63.000 | 65.000 | 55.877 | no 0 hours |
| 2026-05-05T04:00:00 | 62.000 | 67.000 | 55.455 | no 0 hours |
| 2026-05-05T05:00:00 | 61.000 | 70.000 | 55.235 | no 0 hours |
| 2026-05-05T06:00:00 | 60.000 | 72.000 | 54.768 | no 0 hours |
| 2026-05-05T07:00:00 | 58.000 | 80.000 | 54.602 | no 0 hours |
| 2026-05-05T08:00:00 | 57.000 | 83.000 | 54.257 | no 0 hours |
| 2026-05-05T09:00:00 | -------------------- | 80.000 | -------------------- | -------------------- |
| 2026-05-05T10:00:00 | 56.000 | 86.000 | 53.882 | no 0 hours |
| 2026-05-05T12:00:00 | 59.000 | 80.000 | 55.552 | no 0 hours |
| 2026-05-05T13:00:00 | 62.000 | 75.000 | 57.269 | no 0 hours |
| 2026-05-05T14:00:00 | 68.000 | 59.000 | 58.711 | no 0 hours |
| 2026-05-05T15:00:00 | 73.000 | 48.000 | 59.838 | no 0 hours |
| 2026-05-05T16:00:00 | 76.000 | 42.000 | 60.427 | no 0 hours |
| 2026-05-05T17:00:00 | 78.000 | 40.000 | 61.334 | no 0 hours |
| 2026-05-05T18:00:00 | 79.000 | 36.000 | 60.837 | no 0 hours |
| 2026-05-05T19:00:00 | 81.000 | 35.000 | 61.976 | no 0 hours |
| 2026-05-05T20:00:00 | 82.000 | 34.000 | 62.374 | no 0 hours |
| 2026-05-05T21:00:00 | 81.000 | 37.000 | 62.619 | no 0 hours |
| 2026-05-05T22:00:00 | 79.000 | 39.000 | 61.772 | no 0 hours |
| 2026-05-05T23:00:00 | 75.000 | 46.000 | 60.834 | no 0 hours |
| 2026-05-06T00:00:00 | 72.000 | 53.000 | 60.431 | no 0 hours |
| 2026-05-06T01:00:00 | 70.000 | 63.000 | 61.468 | no 0 hours |
| 2026-05-06T02:00:00 | 68.000 | 70.000 | 61.535 | no 0 hours |
| 2026-05-06T03:00:00 | 67.000 | 73.000 | 61.390 | no 0 hours |
| 2026-05-06T04:00:00 | 65.000 | 78.000 | 60.769 | no 0 hours |
| 2026-05-06T05:00:00 | 64.000 | 81.000 | 60.539 | no 0 hours |
| 2026-05-06T06:00:00 | 62.000 | 87.000 | 59.989 | no 0 hours |
| 2026-05-06T07:00:00 | 61.000 | 90.000 | 59.669 | no 0 hours |
| 2026-05-06T11:00:00 | 62.000 | -------------------- | -------------------- | -------------------- |
| 2026-05-06T12:00:00 | 63.000 | -------------------- | -------------------- | -------------------- |
| 2026-05-06T13:00:00 | 66.000 | 84.000 | 63.189 | no 0 hours |
| 2026-05-06T14:00:00 | 70.000 | 76.000 | 64.935 | no 0 hours |
| 2026-05-06T15:00:00 | 73.000 | 71.000 | 66.317 | no 0 hours |
| 2026-05-06T16:00:00 | 76.000 | 64.000 | 66.955 | no 0 hours |
| 2026-05-06T17:00:00 | 78.000 | 60.000 | 67.468 | no 0 hours |
| 2026-05-06T18:00:00 | 80.000 | 56.000 | 67.901 | no 0 hours |
| 2026-05-06T19:00:00 | 81.000 | 54.000 | 68.088 | no 0 hours |
| 2026-05-06T20:00:00 | 82.000 | 53.000 | 68.581 | no 0 hours |
| 2026-05-06T21:00:00 | 83.000 | 51.000 | 68.733 | no 0 hours |
| 2026-05-06T22:00:00 | 82.000 | 55.000 | 69.235 | no 0 hours |
| 2026-05-06T23:00:00 | 80.000 | 58.000 | 68.535 | no 0 hours |
| 2026-05-07T00:00:00 | 78.000 | 64.000 | 68.695 | no 0 hours |
| 2026-05-07T01:00:00 | 76.000 | 69.000 | 68.438 | no 0 hours |
| 2026-05-07T02:00:00 | 74.000 | 74.000 | 68.082 | no 0 hours |
| 2026-05-07T03:00:00 | 72.000 | 79.000 | 67.625 | no 0 hours |
| 2026-05-07T04:00:00 | 71.000 | 81.000 | 67.224 | no 0 hours |
| 2026-05-07T05:00:00 | 70.000 | 84.000 | 67.069 | no 0 hours |
| 2026-05-07T06:00:00 | 69.000 | 87.000 | 66.884 | no 0 hours |
| 2026-05-07T07:00:00 | 68.000 | 90.000 | 66.669 | no 0 hours |
| 2026-05-07T08:00:00 | 67.000 | 93.000 | 66.424 | no 0 hours |
| 2026-05-07T09:00:00 | 66.000 | 97.000 | 66.396 | no 0 hours |
| 2026-05-07T11:00:00 | -------------------- | 100.000 | -------------------- | -------------------- |
| 2026-05-07T13:00:00 | 67.000 | 97.000 | 67.431 | no 0 hours |
| 2026-05-07T14:00:00 | 69.000 | 93.000 | 68.454 | no 0 hours |
| 2026-05-07T15:00:00 | 70.000 | 90.000 | 68.669 | no 0 hours |
| 2026-05-07T16:00:00 | 71.000 | 87.000 | 68.854 | no 0 hours |
| 2026-05-07T17:00:00 | -------------------- | 84.000 | -------------------- | -------------------- |
| 2026-05-07T18:00:00 | -------------------- | 81.000 | -------------------- | -------------------- |
| 2026-05-07T19:00:00 | 72.000 | 79.000 | 67.625 | no 0 hours |
| 2026-05-07T20:00:00 | 73.000 | 73.000 | 66.880 | no 0 hours |
| 2026-05-07T22:00:00 | 71.000 | 76.000 | 65.865 | no 0 hours |
| 2026-05-07T23:00:00 | 68.000 | 81.000 | 64.359 | no 0 hours |
| 2026-05-08T00:00:00 | 67.000 | -------------------- | -------------------- | -------------------- |
| 2026-05-08T01:00:00 | 64.000 | 84.000 | 61.249 | no 0 hours |
| 2026-05-08T02:00:00 | 61.000 | 87.000 | 59.004 | no 0 hours |
| 2026-05-08T03:00:00 | 59.000 | -------------------- | -------------------- | -------------------- |
| 2026-05-08T04:00:00 | 57.000 | 86.000 | 54.862 | no 0 hours |
| 2026-05-08T05:00:00 | 56.000 | -------------------- | -------------------- | -------------------- |
| 2026-05-08T06:00:00 | 55.000 | -------------------- | -------------------- | -------------------- |
| 2026-05-08T07:00:00 | 54.000 | -------------------- | -------------------- | -------------------- |
| 2026-05-08T08:00:00 | 53.000 | 89.000 | 51.487 | no 0 hours |
| 2026-05-08T09:00:00 | 52.000 | -------------------- | -------------------- | -------------------- |
| 2026-05-08T10:00:00 | -------------------- | 86.000 | -------------------- | -------------------- |
| 2026-05-08T12:00:00 | 53.000 | 80.000 | 49.852 | no 0 hours |
| 2026-05-08T13:00:00 | 55.000 | 74.000 | 50.602 | no 0 hours |
| 2026-05-08T14:00:00 | 58.000 | 64.000 | 51.295 | no 0 hours |
| 2026-05-08T15:00:00 | 61.000 | 58.000 | 52.575 | no 0 hours |
| 2026-05-08T16:00:00 | 63.000 | 54.000 | 53.328 | no 0 hours |
| 2026-05-08T17:00:00 | 65.000 | 48.000 | 53.518 | no 0 hours |
| 2026-05-08T18:00:00 | 66.000 | 47.000 | 54.061 | no 0 hours |
| 2026-05-08T19:00:00 | 67.000 | 45.000 | 54.343 | no 0 hours |
| 2026-05-08T20:00:00 | 68.000 | 43.000 | 54.604 | no 0 hours |
| 2026-05-08T22:00:00 | 67.000 | 47.000 | 54.846 | no 0 hours |
| 2026-05-08T23:00:00 | 64.000 | 56.000 | 54.621 | no 0 hours |
| 2026-05-09T00:00:00 | 62.000 | 62.000 | 54.321 | no 0 hours |
| 2026-05-09T01:00:00 | 60.000 | 67.000 | 53.685 | no 0 hours |
| 2026-05-09T02:00:00 | 58.000 | 72.000 | 52.948 | no 0 hours |
| 2026-05-09T03:00:00 | 56.000 | 74.000 | 51.522 | no 0 hours |
| 2026-05-09T04:00:00 | 55.000 | 77.000 | 51.177 | no 0 hours |
| 2026-05-09T05:00:00 | 54.000 | -------------------- | -------------------- | -------------------- |
| 2026-05-09T06:00:00 | 53.000 | 80.000 | 49.852 | no 0 hours |
| 2026-05-09T07:00:00 | 52.000 | 83.000 | 49.432 | no 0 hours |
| 2026-05-09T08:00:00 | 50.000 | 89.000 | 48.502 | no 0 hours |
| 2026-05-09T10:00:00 | -------------------- | 93.000 | -------------------- | -------------------- |
| 2026-05-09T11:00:00 | 52.000 | 89.000 | 50.492 | no 0 hours |
| 2026-05-09T12:00:00 | 54.000 | 86.000 | 51.922 | no 0 hours |
| 2026-05-09T13:00:00 | 58.000 | 77.000 | 53.982 | no 0 hours |
| 2026-05-09T14:00:00 | 63.000 | 67.000 | 56.340 | no 0 hours |
| 2026-05-09T15:00:00 | 67.000 | 61.000 | 58.370 | no 0 hours |
| 2026-05-09T16:00:00 | 69.000 | 57.000 | 59.033 | no 0 hours |
| 2026-05-09T17:00:00 | 71.000 | 51.000 | 59.073 | no 0 hours |
| 2026-05-09T18:00:00 | 72.000 | 49.000 | 59.324 | no 0 hours |
| 2026-05-09T19:00:00 | 73.000 | 48.000 | 59.838 | no 0 hours |
| 2026-05-09T20:00:00 | 74.000 | 46.000 | 60.054 | no 0 hours |
| 2026-05-09T21:00:00 | -------------------- | 48.000 | -------------------- | -------------------- |
| 2026-05-09T22:00:00 | 73.000 | 51.000 | 60.683 | no 0 hours |
| 2026-05-09T23:00:00 | 70.000 | 59.000 | 60.401 | no 0 hours |
| 2026-05-10T00:00:00 | 68.000 | 65.000 | 60.252 | no 0 hours |
| 2026-05-10T01:00:00 | 66.000 | 70.000 | 59.735 | no 0 hours |
| 2026-05-10T02:00:00 | 64.000 | 75.000 | 59.118 | no 0 hours |
| 2026-05-10T03:00:00 | 62.000 | 81.000 | 58.629 | no 0 hours |
| 2026-05-10T04:00:00 | 61.000 | 84.000 | 58.339 | no 0 hours |
| 2026-05-10T05:00:00 | 60.000 | -------------------- | -------------------- | -------------------- |
| 2026-05-10T06:00:00 | 59.000 | 87.000 | 57.034 | no 0 hours |
| 2026-05-10T07:00:00 | 58.000 | 90.000 | 56.669 | no 0 hours |
| 2026-05-10T08:00:00 | 57.000 | -------------------- | -------------------- | -------------------- |
| 2026-05-10T09:00:00 | 56.000 | 93.000 | 55.259 | no 0 hours |
| 2026-05-10T12:00:00 | 58.000 | 90.000 | 56.669 | no 0 hours |
| 2026-05-10T13:00:00 | 62.000 | 81.000 | 58.629 | no 0 hours |
| 2026-05-10T14:00:00 | 67.000 | 70.000 | 60.635 | no 0 hours |
| 2026-05-10T15:00:00 | 71.000 | 61.000 | 61.790 | no 0 hours |
| 2026-05-10T16:00:00 | 74.000 | 55.000 | 62.635 | no 0 hours |
| 2026-05-10T17:00:00 | 76.000 | 50.000 | 62.801 | no 0 hours |
| 2026-05-10T18:00:00 | 77.000 | 48.000 | 62.998 | no 0 hours |
| 2026-05-10T19:00:00 | 78.000 | 47.000 | 63.481 | no 0 hours |
| 2026-05-10T20:00:00 | 79.000 | 45.000 | 63.643 | no 0 hours |
| 2026-05-10T22:00:00 | 77.000 | 50.000 | 63.601 | no 0 hours |
| 2026-05-10T23:00:00 | 75.000 | 55.000 | 63.460 | no 0 hours |
| 2026-05-11T00:00:00 | 72.000 | 64.000 | 63.475 | no 0 hours |
| 2026-05-11T01:00:00 | 69.000 | 69.000 | 62.173 | no 0 hours |
| 2026-05-11T02:00:00 | 66.000 | 74.000 | 60.722 | no 0 hours |
| 2026-05-11T03:00:00 | 64.000 | 78.000 | 59.829 | no 0 hours |
| 2026-05-11T04:00:00 | 63.000 | 80.000 | 59.352 | no 0 hours |
| 2026-05-11T05:00:00 | 62.000 | -------------------- | -------------------- | -------------------- |
| 2026-05-11T06:00:00 | -------------------- | 81.000 | -------------------- | -------------------- |
| 2026-05-11T07:00:00 | 61.000 | 84.000 | 58.339 | no 0 hours |
| 2026-05-11T08:00:00 | 60.000 | 87.000 | 58.019 | no 0 hours |
| 2026-05-11T09:00:00 | 59.000 | 90.000 | 57.669 | no 0 hours |
| 2026-05-11T10:00:00 | -------------------- | 92.000 | -------------------- | -------------------- |
| 2026-05-11T11:00:00 | -------------------- | 93.000 | -------------------- | -------------------- |
| 2026-05-11T12:00:00 | 61.000 | 90.000 | 59.669 | no 0 hours |
| 2026-05-11T13:00:00 | 64.000 | 81.000 | 60.539 | no 0 hours |
| 2026-05-11T14:00:00 | 68.000 | 72.000 | 62.048 | no 0 hours |
| 2026-05-11T15:00:00 | 71.000 | 64.000 | 62.605 | no 0 hours |
| 2026-05-11T16:00:00 | 73.000 | 59.000 | 62.936 | no 0 hours |
| 2026-05-11T17:00:00 | 75.000 | 56.000 | 63.751 | no 0 hours |
| 2026-05-11T18:00:00 | 76.000 | 54.000 | 63.988 | no 0 hours |
| 2026-05-11T19:00:00 | 77.000 | 51.000 | 63.903 | no 0 hours |
| 2026-05-11T20:00:00 | 78.000 | 49.000 | 64.094 | no 0 hours |
| 2026-05-11T21:00:00 | 77.000 | 50.000 | 63.601 | no 0 hours |
| 2026-05-11T22:00:00 | 75.000 | 54.000 | 63.168 | no 0 hours |
| 2026-05-11T23:00:00 | 73.000 | 61.000 | 63.500 | no 0 hours |
| 2026-05-12T00:00:00 | 70.000 | 71.000 | 63.602 | no 0 hours |